串田彗星

144P/Kushida (2001)

English version
Home page
Updated on May 18, 2014

---------------------------------------------------------------------

・ プロフィール

符号 144P/2000 O2
検出日 2000年7月25日
検出光度
検出者 C. E. Delahodde, O. R. Hainaut (European Southern Observatory, La Silla)

・ 軌道要素

Epoch 2001 June 20.0 TT = JDT 2452080.5  
T 2001 June 27.69653 TT                                 Muraoka 
q   1.4312798            (2000.0)            P               Q
n   0.13007453     Peri.  216.02269     -0.20049821     -0.97750726
a   3.8578133      Node   245.62433     +0.91481812     -0.16290676
e   0.6289920      Incl.    4.11878     +0.35058277     -0.13394382
P   7.58
From 305 observations 1994-2000, mean residual 0".76.

・ 星図

・ 光度変化

        m1 = 7.0 + 5 logΔ + 25.0 log r

---------------------------------------------------------------------

軌道要素は村岡健治氏の計算によるものです。
星図は StellaNavigator Ver.2.0 for Windows (アストロアーツ 編著 / アスキー出版局刊) で作成したものです。
光度グラフはComet for Windowsで作成したものです。

---------------------------------------------------------------------

Copyright(C) Seiichi Yoshida (comet@aerith.net). All rights reserved.